Timestamp,Net Demand,Generation,Import,Solar,Wind,STOR,Other
2024-05-03T11:25:00,280.96,32.46,248.50,3.00,11.61,0.62,17.23
2024-05-03T11:30:00,280.04,34.72,245.32,3.10,14.14,0.45,17.03
2024-05-03T11:35:00,279.34,33.11,246.23,3.01,13.30,0.43,16.37
2024-05-03T11:40:00,278.61,32.17,246.44,3.61,12.25,0.21,16.10
2024-05-03T11:45:00,285.81,37.84,247.97,3.42,14.23,4.11,16.08
2024-05-03T11:50:00,316.89,55.18,261.71,2.87,16.08,19.92,16.31
2024-05-03T11:55:00,318.08,55.26,262.82,2.82,15.54,20.22,16.68
2024-05-03T12:00:00,317.26,55.83,261.43,3.12,15.93,20.04,16.74
2024-05-03T12:05:00,278.58,36.95,241.63,2.89,16.98,0.26,16.82
2024-05-03T12:10:00,278.92,38.25,240.67,2.91,16.65,0.47,18.22
2024-05-03T12:15:00,295.1,44.44,250.66,2.61,15.23,8.17,18.43
2024-05-03T12:20:00,317.98,55.98,262.00,2.40,16.44,19.55,17.59
2024-05-03T12:25:00,318.84,55.06,263.78,2.54,16.05,19.54,16.93
2024-05-03T12:30:00,319.49,56.13,263.36,2.57,17.38,19.59,16.59
2024-05-03T12:35:00,318.99,56.83,262.16,2.65,17.23,19.81,17.14
2024-05-03T12:40:00,319.43,60.97,258.46,2.81,20.48,19.80,17.88
2024-05-03T12:45:00,319.37,64.31,255.06,2.67,24.39,19.79,17.46
2024-05-03T12:50:00,318.31,61.02,257.29,2.55,22.05,19.81,16.61
2024-05-03T12:55:00,318.13,57.45,260.68,2.54,18.35,19.81,16.75
2024-05-03T13:00:00,315.83,55.55,260.28,2.53,15.54,19.59,17.89
2024-05-03T13:05:00,275.39,38.35,237.04,2.46,16.70,0.30,18.89
2024-05-03T13:10:00,274.82,36.62,238.20,2.63,15.07,0.34,18.58
2024-05-03T13:15:00,273.01,35.32,237.69,2.68,14.52,0.33,17.79
2024-05-03T13:20:00,272.46,36.55,235.91,2.68,16.14,0.27,17.46
2024-05-03T13:25:00,271.64,37.7,233.94,2.65,16.86,0.30,17.89
2024-05-03T13:30:00,270.05,37.97,232.08,2.51,16.74,0.27,18.45
2024-05-03T13:35:00,271.04,37.77,233.27,2.36,15.70,1.13,18.58
2024-05-03T13:40:00,271.33,37.95,233.38,2.33,16.62,1.18,17.82
2024-05-03T13:45:00,271.35,36.28,235.07,2.30,15.26,1.28,17.44
2024-05-03T13:50:00,269.89,35.62,234.27,2.31,14.55,1.45,17.31
2024-05-03T13:55:00,267.75,38.38,229.37,2.42,16.98,1.41,17.57
2024-05-03T14:00:00,266.75,40.14,226.61,2.36,17.44,1.24,19.10
2024-05-03T14:05:00,267.25,43.93,223.32,2.26,19.87,1.77,20.03
2024-05-03T14:10:00,273.13,47.2,225.93,2.32,21.19,4.73,18.96
2024-05-03T14:15:00,277.61,48.38,229.23,2.52,21.66,6.04,18.16
2024-05-03T14:20:00,276.44,49.62,226.82,2.41,23.53,6.04,17.64
2024-05-03T14:25:00,276.04,48.74,227.30,2.45,23.10,6.10,17.09
2024-05-03T14:30:00,275.24,46.81,228.43,2.62,21.33,6.04,16.82
2024-05-03T14:35:00,274.84,45.32,229.52,2.61,19.71,6.14,16.86
2024-05-03T14:40:00,277.19,46.49,230.70,2.58,19.36,8.00,16.55
2024-05-03T14:45:00,276.47,46.6,229.87,2.47,19.20,8.57,16.36
2024-05-03T14:50:00,274.94,42.53,232.41,2.52,15.36,8.43,16.22
2024-05-03T14:55:00,272.03,42.48,229.55,2.65,16.92,7.23,15.68
2024-05-03T15:00:00,267.1,40.72,226.38,2.42,18.50,4.40,15.40
2024-05-03T15:05:00,292.73,56.35,236.38,2.67,19.44,18.04,16.20
2024-05-03T15:10:00,293.07,58.83,234.24,2.70,21.60,18.26,16.27
2024-05-03T15:15:00,291.25,57.72,233.53,2.68,21.49,18.20,15.35
2024-05-03T15:20:00,291.6,58.84,232.76,2.66,22.56,18.18,15.44
2024-05-03T15:25:00,290.75,60.45,230.30,2.67,23.04,18.25,16.49
2024-05-03T15:30:00,291.04,60.92,230.12,2.59,23.34,18.22,16.77
2024-05-03T15:35:00,258.87,43.16,215.71,2.65,22.50,1.43,16.58
2024-05-03T15:40:00,260.85,41.66,219.19,2.69,21.14,1.10,16.73
2024-05-03T15:45:00,267.71,47.18,220.53,2.84,22.66,3.62,18.06
2024-05-03T15:50:00,263.08,43.97,219.11,2.72,21.47,1.04,18.74
2024-05-03T15:55:00,262.52,43,219.52,2.87,20.86,0.49,18.78
2024-05-03T16:00:00,262.78,42.24,220.54,3.22,20.44,0.27,18.31
2024-05-03T16:05:00,265.15,52.18,212.97,2.89,18.30,13.57,17.42
2024-05-03T16:10:00,265.82,36.39,229.43,2.62,16.95,0.20,16.62
2024-05-03T16:15:00,266.34,39.34,227.00,2.75,20.12,0.20,16.27
2024-05-03T16:20:00,265.65,40.89,224.76,2.82,21.00,0.20,16.87
2024-05-03T16:25:00,266.2,43.83,222.37,2.77,23.66,0.20,17.20
2024-05-03T16:30:00,267.35,41.37,225.98,2.96,21.78,0.20,16.43
2024-05-03T16:35:00,268.39,39.82,228.57,2.92,17.92,2.92,16.06
2024-05-03T16:40:00,269.49,45.34,224.15,3.28,21.04,4.76,16.26
2024-05-03T16:45:00,269.73,43,226.73,3.06,22.57,0.20,17.17
2024-05-03T16:50:00,271.06,44.55,226.51,2.98,23.04,0.20,18.33
2024-05-03T16:55:00,272.52,44.86,227.66,3.01,23.47,0.20,18.18
2024-05-03T17:00:00,273.83,44.23,229.60,2.88,24.04,0.20,17.11
2024-05-03T17:05:00,275.37,61.02,214.35,2.57,23.20,17.99,17.26
2024-05-03T17:10:00,275.6,63.53,212.07,2.45,24.66,18.38,18.04
2024-05-03T17:15:00,277.04,63.5,213.54,2.56,23.60,18.90,18.44
2024-05-03T17:20:00,277.44,62.86,214.58,2.64,23.36,18.90,17.96
